www.pogodaiklimat.ru

Погода и климат >> Архив погоды >> Южная Африка >> Punda Maria


ПОГОДА в Punda Maria

  • Прогноз погоды в Punda Maria
  • Монитор погоды в Punda Maria

АРХИВ ПОГОДЫ в Punda Maria

Время (UTC), дата Ветер
(напр.,м/с)
 
Видим.   Явления Облачность Т
(С)
Тd
(С)
f
(%)
Тe
(С)
Тes
(С)
Комфортность P
(гПа)
Po
(гПа)
Тmin
(С)
Tmax
(С)
R
(мм)
R24
(мм)
S
(см)
12 11.06 В 2 н/о н/о +26.6 +11.3 38 +28 +28 жарко 969.0 +12.9 +26.8
15 11.06 штиль 0 н/о н/о +23.8 +9.9 41 +25 +25 комфорт 968.4 +23.8 +26.8
18 11.06 штиль 0 н/о н/о +19.6 +9.8 53 +21 +21 комфорт 969.8 +19.1 +26.8
21 11.06 штиль 0 н/о н/о +18.3 +11.2 63 +19 +19 970.0 +17.9 +26.8
00 12.06 штиль 0 н/о н/о +17.5 +11.8 69 +18 +18 969.1 +17.5 +26.8
03 12.06 штиль 0 н/о н/о +15.4 +11.4 77 +15 +15 969.0 +15.4 +26.8
06 12.06 штиль 0 н/о н/о +16.4 +12.7 79 +16 +16 970.2 +14.3
09 12.06 СЗ 1 н/о н/о +24.9 +13.0 48 +27 +27 жарко 969.9 +14.3 +24.9
12 12.06 ЮЗ 2 н/о н/о +27.0 +9.1 32 +27 +27 жарко 966.3 +14.3 +27.4
15 12.06 штиль 0 н/о н/о +23.9 +8.1 36 +24 +24 комфорт 966.0 +23.9 +27.4
18 12.06 штиль 0 н/о н/о +20.3 +7.1 42 +21 +21 комфорт 967.3 +18.5 +27.4
21 12.06 З 1 н/о н/о +17.9 +6.5 47 +19 +19 967.4 +17.9 +27.4
00 13.06 штиль 0 н/о н/о +16.4 +6.3 51 +16 +16 967.0 +15.7 +27.4
03 13.06 З 1 н/о н/о +15.1 +6.4 56 +16 +16 967.3 +14.3 +27.4
06 13.06 З 1 н/о н/о +16.9 +7.3 53 +18 +18 969.6 +14.3
09 13.06 Ю 3 н/о н/о +23.2 +7.9 37 +24 +24 комфорт 971.1 +14.3 +24.0
12 13.06 Ю 2 н/о н/о +25.4 +9.0 35 +26 +26 жарко 969.6 +14.3 +25.6
15 13.06 ЮВ 3 н/о н/о +23.7 +10.5 43 +25 +25 комфорт 970.4 +23.7 +25.6
18 13.06 ЮВ 4 н/о н/о +19.7 +12.0 61 +21 +21 комфорт 974.0 +19.7 +25.6
21 13.06 ЮВ 3 н/о н/о +16.9 +10.3 65 +17 +17 976.0 +16.9 +25.6
00 14.06 Ю 2 н/о н/о +15.4 +9.8 69 +15 +15 976.0 +15.4 +25.6
03 14.06 ЮВ 1 н/о н/о +15.3 +9.7 69 +16 +16 976.1 +15.3 +25.6
06 14.06 Ю 2 н/о н/о +14.9 +9.9 72 +15 +15 978.0 +14.1
09 14.06 ЮВ 2 н/о н/о +19.0 +10.4 57 +20 +20 977.1 +14.1 +19.0
12 14.06 ЮВ 2 н/о н/о +21.3 +9.0 45 +23 +23 комфорт 974.3 +14.1 +21.4
15 14.06 ЮВ 1 н/о н/о +20.1 +7.2 43 +22 +22 комфорт 973.9 +20.1 +21.6
18 14.06 штиль 0 н/о н/о +15.1 +7.4 60 +15 +15 975.0 +15.1 +21.6
21 14.06 штиль 0 н/о н/о +13.7 +7.7 67 +13 +13 975.1 +13.2 +21.6
00 15.06 штиль 0 н/о н/о +12.1 +8.6 79 +12 +12 974.3 +12.1 +21.6
03 15.06 штиль 0 н/о н/о +11.7 +9.4 86 +11 +11 974.1 +11.5 +21.6
09 15.06 Ю 1 н/о н/о +17.7 +9.6 59 +19 +19 975.4 +11.5 +18.5
12 15.06 ЮЗ 1 н/о н/о +20.8 +7.2 41 +23 +23 комфорт 971.7 +11.5 +21.2
15 15.06 штиль 0 н/о н/о +18.5 +6.7 46 +19 +19 971.1 +18.5 +21.2
18 15.06 штиль 0 н/о н/о +15.3 +6.4 55 +15 +15 972.2 +15.3 +21.2
21 15.06 СЗ 1 н/о н/о +13.5 +6.1 61 +14 +14 972.3 +12.1 +21.2
00 16.06 СЗ 1 н/о н/о +12.0 +5.8 66 +12 +12 971.2 +11.9 +21.2
03 16.06 СЗ 2 н/о н/о +11.9 +6.0 67 +11 +11 970.9 +11.3 +21.2
06 16.06 штиль 0 н/о н/о +12.0 +6.5 69 +12 +12 971.8 +9.5
09 16.06 ЮЗ 1 н/о н/о +21.3 +6.9 39 +22 +22 комфорт 972.6 +9.5 +21.3
12 16.06 СЗ 1 н/о н/о +23.2 +5.8 32 +24 +24 комфорт 970.0 +9.5 +23.7
15 16.06 штиль 0 н/о н/о +20.2 +4.8 36 +21 +21 комфорт 969.6 +20.2 +23.7
18 16.06 штиль 0 н/о н/о +16.4 +6.0 50 +16 +16 971.7 +15.9 +23.7
21 16.06 штиль 0 н/о н/о +15.3 +6.4 55 +15 +15 972.7 +15.3 +23.7
00 17.06 СЗ 2 н/о н/о +14.5 +7.1 61 +15 +15 971.7 +14.1 +23.7
03 17.06 СЗ 2 н/о н/о +13.4 +6.5 63 +13 +13 972.2 +11.4 +23.7
06 17.06 штиль 0 н/о н/о +15.4 +7.2 58 +15 +15 974.3 +11.4
09 17.06 В 1 н/о н/о +21.6 +12.3 55 +24 +24 комфорт 973.9 +11.4 +21.9
12 17.06 В 1 н/о н/о +23.3 +8.7 39 +25 +25 комфорт 971.0 +11.4 +24.7
15 17.06 штиль 0 н/о н/о +20.9 +8.0 43 +22 +22 комфорт 970.1 +20.9 +24.7
18 17.06 штиль 0 н/о н/о +16.0 +7.0 55 +16 +16 971.1 +16.0 +24.7
21 17.06 штиль 0 н/о н/о +15.1 +7.4 60 +15 +15 971.5 +15.1 +24.7
00 18.06 З 1 н/о н/о +14.1 +7.2 63 +15 +15 970.6 +14.1 +24.7
03 18.06 штиль 0 н/о н/о +12.4 +7.1 70 +12 +12 969.8 +12.4 +24.7
06 18.06 штиль 0 н/о н/о +13.5 +8.1 70 +13 +13 971.7 +12.2
09 18.06 ЮВ 1 н/о н/о +24.0 +8.2 36 +24 +24 комфорт 972.2 +12.2 +24.1

 

Местоположение метеостанции Punda Maria (Южная Африка): широта -22.68 долгота 31.02 высота над уровнем моря 457 м.

В архиве по умолчанию представлена погода в Punda Maria за последнюю неделю. Архивные данные за месяц целиком и за предыдущие месяцы, начиная с января 2011 года, Вы можете получить, выбрав интересующий диапазон дат из раскрывающегося списка и нажав кнопку "Ввод!".


*Определитесь, кто Вы:
робот инопланетянин человек

Внимание! Время в таблицах - всемирное. Для получения местного времени необходимо прибавить поправку, которая равна 2 ч.

Смотрите также архив погоды в соседних городах и на ближайших метеорологических станциях:

Погода в Тхохояндоу (Южная Африка) (62 км)
Погода в Тхохояндоу (Южная Африка) (78 км)
Погода в Левубу (Южная Африка) (88 км)
Погода в Байтбридже (Зимбабве) (117 км)
Погода в Пхалаборве (Южная Африка) (141 км)
Погода в Тзанеен-Греншоек (Южная Африка) (154 км)
Погода в Тзанеене (Южная Африка) (156 км)
Погода в Маре (Южная Африка) (157 км)
Погода в Ньоняне (Свазиленд) (179 км)
Погода в Вувулане (Свазиленд) (183 км)

Пояснения к столбцам:

Ветер - указаны скорость ветра в м/с - средняя за 10 мин, порывы в срок и между сроками (в фигурных скобках) и направление, откуда дует ветер: С - северный, СВ - северо-восточный, В - восточный, ЮВ - юго-восточный, Ю - южный, ЮЗ - юго-западный, З - западный, СЗ - северо-западный.
Видимость - горизонтальная дальность видимости в метрах или километрах. При видимости от 1 до 10 км при отсутствии осадков обычно наблюдается дымка, при ухудшении видимости до 1 км и менее - туман. В сухую погоду видимость может ухудшаться дымом, пылью или мглою.
Явления - указаны атмосферные явления, наблюдавшиеся в срок или в последний час перед сроком; фигурными скобками обозначены явления, наблюдавшиеся между сроками (за 1-3 часа до срока); квадратными скобками обозначены град или гололедные отложения с указанием их диаметра в мм.
Облачность - указаны через наклонную черту общая и нижняя облачность в баллах и высота нижней границы облаков в метрах; квадратными скобками обозначены формы облаков: Ci - перистые, Cs - перисто-слоистые, Cc - перисто-кучевые, Ac - высококучевые, As - высокослоистые, Sc - слоисто-кучевые, Ns - слоисто-дождевые, Cu - кучевые, Cb - кучево-дождевые. Подробнее классификацию облаков см. в Атласе облаков (PDF).
T - Температура воздуха - температура, измеренная на высоте 2 м над землей.
Td - Температура точки росы - температура, при понижении до которой содержащийся в воздухе водяной пар достигнет насыщения.
f - Относительная влажность воздуха - влажноcть воздуха, измеренная на высоте 2 м над землей.
Te - Эффективная температура - температура, которую ощущает одетый по сезону человек в тени. Характеристика душности погоды. При расчете учитывается влияние влажности воздуха и скорости ветра на теплоощущения человека.
Tes - Эффективная температура на солнце - температура, которую ощущает человек, с поправкой на солнечный нагрев. Характеристика знойности погоды. Зависит от высоты солнца над горизонтом, облачности и скорости ветра. Ночью, в пасмурную погоду, а также при ветре 12 м/с и более поправка равна нулю.
P - Атмосферное давление - приведенное к уровню моря атмосферное давление.
Po - Атмосферное давление - измеренное на уровне метеостанции атмосферное давление.
Tmin - Минимальная температура - минимум температуры воздуха на высоте 2 м над землей.
Tmax - Максимальная температура - максимум температуры воздуха на высоте 2 м над землей.
R - Количество осадков - Количество выпавших осадков за период времени, мм. При наведении курсора мыши на число - период времени, за который выпало указанное количество осадков.
R24 - Количество осадков - Количество выпавших осадков за 24 часа, мм.
S - Снежный покров - Высота снежного покрова, см. При наведении курсора мыши на число - состояние снежного покрова и степень покрытия местности в баллах.